Flag for U.S.A. Weather past 2 weeks in Post Falls, Idaho, U.S.A.

Now
55 °F

Passing clouds.


Feels Like: 52 °F
Forecast: 36 / 59 °F
Wind: 12 mph from West

Location: Coeur d'Alene Weather Reporting System

Current Time: Apr 26, 2015 at 4:29:15 PM

Latest Report: Apr 26, 2015 at 3:55 PM


Visibility: 10 mi

Pressure: 30.20 "Hg

Humidity: 38%

Dew point: 30 °F

Location of Post FallsLocation

Historic Weather in Post Falls — Graph

°F

Post Falls temperature yesterday

Maximum temperature yesterday: 46 °F (at 10:35 AM)
Minimum temperature yesterday: 32 °F (at 3:15 AM)
Average temperature yesterday: 40 °F

Past Weeks' High & Low Weather Summary

 TemperatureHumidityPressure
High73 °F (Apr 21, 2:55 PM)93% (Apr 14, 4:15 AM)30.40 "Hg (Apr 14, 4:15 AM)
Low27 °F (Apr 13, 4:55 AM)18% (Apr 18, 4:35 PM)29.70 "Hg (Apr 24, 2:35 AM)
Average47 °F59%30.02 "Hg
* Reported Apr 11 3:35 PM — Apr 26 3:35 PM, Post Falls, Weather by CustomWeather, © 2015

Note: Actual official high and low records may vary slightly from our data, if they occured in-between our weather recording intervals... More about our weather records

Advertising

Post Falls weather history for previous 24 hours

 ConditionsComfort  
Time TempWeatherWind HumidityBarometerVisibility
3:35 PM
Sun, Apr 26
57 °FSunny.10 mph36%30.20 "Hg10 mi
2:55 PM57 °FPassing clouds.7 mph33%30.20 "Hg10 mi
2:35 PM55 °FPassing clouds.10 mph36%30.19 "Hg10 mi
2:15 PM54 °FPassing clouds.6 mph35%30.19 "Hg10 mi
1:55 PM55 °FPassing clouds.10 mph38%30.19 "Hg10 mi
1:35 PM55 °FSunny.8 mph36%30.19 "Hg10 mi
1:15 PM55 °FSunny.6 mph36%30.19 "Hg10 mi
12:55 PM55 °FSunny.8 mph38%30.19 "Hg10 mi
12:35 PM54 °FSunny.9 mph44%30.19 "Hg10 mi
12:15 PM54 °FSunny.7 mph51%30.19 "Hg10 mi
11:55 AM52 °FSunny.7 mph54%30.20 "Hg10 mi
11:35 AM52 °FSunny.8 mph54%30.20 "Hg10 mi
11:15 AM48 °FSunny.3 mph66%30.20 "Hg10 mi
10:55 AM48 °FSunny.3 mph66%30.19 "Hg10 mi
10:35 AM48 °FSunny.6 mph66%30.19 "Hg10 mi
10:15 AM46 °FSunny.5 mph71%30.18 "Hg10 mi
9:55 AM45 °FSunny.6 mph76%30.18 "Hg10 mi
9:35 AM45 °FSunny.No wind76%30.18 "Hg10 mi
9:15 AM45 °FScattered clouds.3 mph76%30.17 "Hg10 mi
8:55 AM43 °FPartly sunny.No wind81%30.16 "Hg10 mi
8:35 AM39 °FPartly sunny.No wind93%30.15 "Hg10 mi
8:15 AM39 °FLow clouds.3 mph87%30.15 "Hg10 mi
7:55 AM39 °FLow clouds.5 mph87%30.15 "Hg10 mi
7:35 AM37 °FLow clouds.No wind93%30.14 "Hg10 mi
7:15 AM37 °FLow clouds.No wind93%30.14 "Hg10 mi
6:55 AM36 °FLow clouds.No wind93%30.13 "Hg10 mi
6:35 AM36 °FLow clouds.3 mph93%30.12 "Hg5 mi
6:15 AM36 °FLow clouds.3 mph93%30.11 "Hg0 mi
5:55 AM36 °FLow clouds.3 mph93%30.10 "Hg0 mi
5:35 AM36 °FLow clouds.3 mph93%30.10 "Hg0 mi
5:15 AM34 °FLow clouds.No wind93%30.09 "Hg1 mi
4:55 AM34 °FLow clouds.No wind87%30.08 "Hg1 mi
4:35 AM34 °FLow clouds.5 mph87%30.07 "Hg1 mi
4:15 AM32 °FPassing clouds.3 mph87%30.07 "Hg2 mi
3:55 AM34 °FClear.No wind87%30.06 "Hg10 mi
3:35 AM32 °FClear.3 mph93%30.05 "Hg10 mi
3:15 AM34 °FClear.3 mph87%30.04 "Hg10 mi
2:55 AM32 °FClear.5 mph93%30.04 "Hg10 mi
2:35 AM32 °FClear.No wind87%30.03 "Hg10 mi
2:15 AM34 °FClear.3 mph87%30.03 "Hg10 mi
1:55 AM34 °FClear.5 mph87%30.02 "Hg10 mi
1:35 AM34 °FClear.5 mph87%30.02 "Hg10 mi
1:15 AM34 °FClear.No wind87%30.02 "Hg10 mi
12:55 AM36 °FClear.No wind87%30.01 "Hg10 mi
12:35 AM36 °FClear.No wind87%30.01 "Hg10 mi
12:15 AM36 °FClear.3 mph81%30.00 "Hg10 mi
11:55 PM
Sat, Apr 25
36 °FClear.6 mph87%30.00 "Hg10 mi
11:35 PM36 °FClear.5 mph81%29.99 "Hg10 mi
11:15 PM36 °FClear.3 mph93%29.99 "Hg10 mi
10:55 PM36 °FClear.3 mph81%29.98 "Hg10 mi
10:35 PM39 °FClear.3 mph87%29.98 "Hg10 mi
10:15 PM39 °FPassing clouds.6 mph87%29.97 "Hg10 mi
9:55 PM39 °FPassing clouds.6 mph87%29.97 "Hg10 mi
9:35 PM39 °FPassing clouds.7 mph93%29.97 "Hg10 mi
9:15 PM39 °FPassing clouds.No wind93%29.98 "Hg10 mi
8:15 PM41 °FSunny.No wind81%29.95 "Hg10 mi
7:55 PM41 °FSunny.3 mph87%29.94 "Hg10 mi
7:35 PM43 °FSunny.7 mph81%29.94 "Hg10 mi
7:15 PM43 °FSunny.7 mph76%29.93 "Hg10 mi
6:55 PM43 °FPassing clouds.7 mph76%29.93 "Hg10 mi
6:35 PM45 °FBroken clouds.10 mph76%29.92 "Hg10 mi
6:15 PM45 °FPartly sunny.10 mph76%29.93 "Hg10 mi
5:55 PM45 °FCloudy.7 mph71%29.93 "Hg10 mi
5:35 PM45 °FBroken clouds.8 mph76%29.92 "Hg10 mi
5:15 PM45 °FSunny.5 mph76%29.92 "Hg10 mi
4:55 PM45 °FScattered clouds.8 mph81%29.91 "Hg10 mi
4:35 PM45 °FMostly cloudy.8 mph76%29.91 "Hg10 mi
4:15 PM43 °FMostly cloudy.6 mph76%29.91 "Hg9 mi
Weather by CustomWeather, © 2015

See weather overviewHow to use our weather pages